Location: Hilton Head Island
(32.2163°N, 80.7526°W)
Time: 14:52:27
(UTC-05:00)

Tiangong - Pass Details

Date: 29 January 2026
Orbit: 386 x 393 km, 41.5° (Epoch: 6 February)

Event Time Altitude Azimuth Distance (km) Brightness Sun altitude
Exits shadow 06:41:36 11° 295° (WNW) 1,365 0.0 -8.3°
Maximum altitude 06:44:40 70° 211° (SSW) 419 -2.0 -7.7°
Drops below altitude 10° 06:47:52 10° 127° (SE) 1,423 2.1 -7.0°
Sets 06:49:56 0° 125° (SE) 2,276 3.5 -6.6°
